(308935) = 2006 SK383

Discovered at Apache Point on 2006-09-29 by A. C. Becker.

Orbit

Orbit type: Main Belt

Note: WebGL enabled browser required.

epoch2023-09-13.0
epoch JD2460200.5
perihelion date2021-11-29.61331
perihelion JD2459548.11331
argument of perihelion (°)342.09975
ascending node (°)132.99602
inclination (°)6.09448
eccentricity0.1178826
perihelion distance (AU)2.4690244
Tisserand w.r.t. Jupiter3.3
ΔV w.r.t. Earth (km/sec)10.0
semimajor axis (AU)2.7989748
mean anomaly (°)137.31262
mean daily motion (°/day)0.21047740
aphelion distance (AU)3.129
period (years)4.68
P-vector [x]-0.42540314
P-vector [y]0.84276522
P-vector [z]0.32981654
Q-vector [x]-0.90166645
Q-vector [y]-0.42595607
Q-vector [z]-0.07455897
absolute magnitude16.45
phase slope0.15
uncertainty0
referenceMPEC 2023-N53
observations used371
oppositions12
arc length (days)6565
first opposition used2005
last opposition used2023
residual rms (arc-secs)0.70
perturbers coarse indicatorM-v
perturbers precise indicator003Ek
first observation date used2005-07-15.0
last observation date used2023-07-06.0
computer nameMPCLINUX
JD of orbit computation2456406.148004
perihelion JD uncertainty (days)1.8427E-04
argument of perihelion uncertainty (°)7.1000E-05
ascending node uncertainty (°)5.7045E-05
inclination uncertainty (°)8.1040E-06
eccentricity uncertainty 6.4120E-08
perihelion distance uncertainty (AU)1.7616E-07
Minimum Orbit Intersection Distances (in AU)
for orbit epoch: 2460000.5, reference: E2023-N53
Mercury2.14866
Venus1.75368
Earth1.48661
Mars0.83231
Jupiter1.95367
Saturn6.53165
Uranus15.8244
Neptune26.9566

Observations

382 total observations over interval: 2005 07 15.28621 – 2023 07 06.305556
These data are available for download (format description).

Date (UT) J2000 RA J2000 Dec Magn Location Ref
2005 07 15.28621 19 59 43.56 -17 55 49.8 21.2 V 691 – Steward Observatory, Kitt Peak-Spacewatch MPS 236319
2005 07 15.30356 19 59 42.63 -17 55 53.8 21.0 V 691 – Steward Observatory, Kitt Peak-Spacewatch MPS 236319
2005 07 15.32095 19 59 41.74 -17 55 57.8 21.2 V 691 – Steward Observatory, Kitt Peak-Spacewatch MPS 236319
2006 09 14.42713 01 40 39.80 +02 10 47.1   291 – LPL/Spacewatch II MPS 214287
2006 09 14.45024 01 40 39.25 +02 10 41.2   291 – LPL/Spacewatch II MPS 214287
2006 09 14.47342 01 40 38.65 +02 10 34.0   291 – LPL/Spacewatch II MPS 214287
2006 09 29.39471 01 32 12.84 +00 42 29.5 21.2   705 – Apache Point MPS 213791
2006 09 29.39553 01 32 12.81 +00 42 29.2 20.5 V 705 – Apache Point MPS 213791
2006 09 30.32500 01 31 33.99 +00 36 41.7 21.2   705 – Apache Point MPS 213791
2006 09 30.32582 01 31 33.95 +00 36 41.5 20.5 V 705 – Apache Point MPS 213791
2006 10 02.30266 01 30 08.96 +00 24 21.3 20.2 V G96 – Mt. Lemmon Survey MPS 214287
2006 10 02.30828 01 30 08.71 +00 24 19.2 20.4 V G96 – Mt. Lemmon Survey MPS 214287
2006 10 02.31383 01 30 08.46 +00 24 17.2 20.3 V G96 – Mt. Lemmon Survey MPS 214287
2006 10 02.31944 01 30 08.20 +00 24 15.1 20.4 V G96 – Mt. Lemmon Survey MPS 214287
2006 10 03.38098 01 29 21.28 +00 17 38.3 21.3   705 – Apache Point MPS 213791
2006 10 03.38182 01 29 21.24 +00 17 38.1 20.5 V 705 – Apache Point MPS 213791
2006 10 04.31041 01 28 39.82 +00 11 51.4 20.8   705 – Apache Point MPS 213791
2006 10 04.31123 01 28 39.79 +00 11 51.1 20.4 V 705 – Apache Point MPS 213791
2006 10 11.28920 01 23 13.96 -00 30 44.9 20.3 R 644 – Palomar Mountain/NEAT MPS 214287
2006 10 11.30998 01 23 12.92 -00 30 52.5 20.4 R 644 – Palomar Mountain/NEAT MPS 214287
2006 10 11.33197 01 23 11.88 -00 30 59.8 20.7 R 644 – Palomar Mountain/NEAT MPS 214287
2006 10 21.23449 01 15 14.22 -01 25 47.0 20.0 V G96 – Mt. Lemmon Survey MPS 214287
2006 10 21.23933 01 15 14.00 -01 25 48.3 20.4 V G96 – Mt. Lemmon Survey MPS 214287
2006 10 21.24425 01 15 13.75 -01 25 49.8 20.2 V G96 – Mt. Lemmon Survey MPS 214287
2006 10 21.24912 01 15 13.50 -01 25 51.4 20.4 V G96 – Mt. Lemmon Survey MPS 214287
2007 11 19.49037 09 34 20.20 +12 31 56.9 21.0 V G96 – Mt. Lemmon Survey MPS 236319
2007 11 19.49656 09 34 20.49 +12 31 55.3 21.1 V G96 – Mt. Lemmon Survey MPS 236319
2007 11 19.50274 09 34 20.85 +12 31 54.4 20.6 V G96 – Mt. Lemmon Survey MPS 236319
2007 11 19.50891 09 34 21.18 +12 31 53.4 20.8 V G96 – Mt. Lemmon Survey MPS 236319
2007 12 20.39315 09 52 53.54 +11 48 28.3 20.4 V G96 – Mt. Lemmon Survey MPS 236319
2007 12 20.40147 09 52 53.68 +11 48 28.8 20.7 V G96 – Mt. Lemmon Survey MPS 236319
2007 12 20.40961 09 52 53.76 +11 48 29.6 20.6 V G96 – Mt. Lemmon Survey MPS 236319
2007 12 20.41785 09 52 53.86 +11 48 29.9 20.4 V G96 – Mt. Lemmon Survey MPS 236319
2007 12 30.40236 09 53 47.00 +12 06 06.2 20.2 V G96 – Mt. Lemmon Survey MPS 236319
2007 12 30.41391 09 53 46.93 +12 06 08.0 20.2 V G96 – Mt. Lemmon Survey MPS 236319
2007 12 30.42547 09 53 46.89 +12 06 10.0 20.1 V G96 – Mt. Lemmon Survey MPS 236319
2007 12 30.43701 09 53 46.82 +12 06 11.5 20.4 V G96 – Mt. Lemmon Survey MPS 236319
2008 01 10.44188 09 51 31.18 +12 46 09.1 20.1 V 691 – Steward Observatory, Kitt Peak-Spacewatch MPS 236319
2008 01 10.45951 09 51 30.76 +12 46 13.9 20.0 V 691 – Steward Observatory, Kitt Peak-Spacewatch MPS 236319
2008 01 10.47714 09 51 30.35 +12 46 18.8 19.9 V 691 – Steward Observatory, Kitt Peak-Spacewatch MPS 236319
2008 02 06.27794 09 34 12.54 +15 32 03.4 19.4 V 703 – Catalina Sky Survey MPS 236319
2008 02 06.28493 09 34 12.14 +15 32 04.6 18.8 V 703 – Catalina Sky Survey MPS 236319
2008 02 06.29193 09 34 11.82 +15 32 10.3 19.5 V 703 – Catalina Sky Survey MPS 236319
2008 02 06.29891 09 34 11.42 +15 32 12.8 19.1 V 703 – Catalina Sky Survey MPS 236319
2008 02 07.19388 09 33 26.64 +15 38 30.5 19.4 V 691 – Steward Observatory, Kitt Peak-Spacewatch MPS 236319
2008 02 07.21149 09 33 25.73 +15 38 38.0 19.4 V 691 – Steward Observatory, Kitt Peak-Spacewatch MPS 236319
2008 02 07.22913 09 33 24.81 +15 38 45.7 19.4 V 691 – Steward Observatory, Kitt Peak-Spacewatch MPS 236319
2008 02 09.63448 09 31 22.93 +15 55 37.9 19.4 R D29 – Purple Mountain Observatory, XuYi Station MPS 237605
2008 02 09.64722 09 31 22.25 +15 55 43.7 19.1 R D29 – Purple Mountain Observatory, XuYi Station MPS 237605
2008 02 09.66125 09 31 21.52 +15 55 49.2 19.6 R D29 – Purple Mountain Observatory, XuYi Station MPS 237605
2008 02 09.67519 09 31 20.79 +15 55 54.7 19.5 R D29 – Purple Mountain Observatory, XuYi Station MPS 237605
2008 02 12.23673 09 29 10.99 +16 13 41.9 19.2   704 – Lincoln Laboratory ETS, New Mexico MPS 237605
2008 02 12.24888 09 29 10.33 +16 13 47.1 19.7   704 – Lincoln Laboratory ETS, New Mexico MPS 237605
2008 02 12.26112 09 29 09.74 +16 13 52.6 19.8   704 – Lincoln Laboratory ETS, New Mexico MPS 237605
2008 02 12.27363 09 29 09.07 +16 13 57.1 19.7   704 – Lincoln Laboratory ETS, New Mexico MPS 237605
2008 02 27.28308 09 17 26.88 +17 47 55.5 19.4   704 – Lincoln Laboratory ETS, New Mexico MPS 239486
2008 02 27.30642 09 17 25.79 +17 48 05.7 20.1   704 – Lincoln Laboratory ETS, New Mexico MPS 239486
2008 02 27.31801 09 17 25.39 +17 48 09.0 19.8   704 – Lincoln Laboratory ETS, New Mexico MPS 239486
2008 02 27.32977 09 17 24.89 +17 48 13.3 19.6   704 – Lincoln Laboratory ETS, New Mexico MPS 239486
2008 02 28.15303 09 16 52.15 +17 52 39.0 20.8 V 691 – Steward Observatory, Kitt Peak-Spacewatch MPS 239486
2008 02 28.17654 09 16 51.22 +17 52 46.9 19.8 V 691 – Steward Observatory, Kitt Peak-Spacewatch MPS 239486
2008 02 28.20030 09 16 50.24 +17 52 54.6 19.8 V 691 – Steward Observatory, Kitt Peak-Spacewatch MPS 239486
2008 03 01.16671 09 15 34.86 +18 03 06.6 19.8 V 691 – Steward Observatory, Kitt Peak-Spacewatch MPS 240785
2008 03 01.18535 09 15 34.12 +18 03 12.0 19.9 V 691 – Steward Observatory, Kitt Peak-Spacewatch MPS 240785
2008 03 01.20379 09 15 33.39 +18 03 17.6 19.9 V 691 – Steward Observatory, Kitt Peak-Spacewatch MPS 240785
2008 03 03.14118 09 14 23.89 +18 12 48.7 20.6 V 703 – Catalina Sky Survey MPS 240785
2008 03 03.14765 09 14 23.71 +18 12 49.5 19.6 V 703 – Catalina Sky Survey MPS 240785
2008 03 03.15410 09 14 23.60 +18 12 53.0 20.7 V 703 – Catalina Sky Survey MPS 240785
2008 03 03.16054 09 14 23.35 +18 12 53.6 20.0 V 703 – Catalina Sky Survey MPS 240785
2008 03 03.16328 09 14 23.14 +18 12 54.3 19.9 V 691 – Steward Observatory, Kitt Peak-Spacewatch MPS 240785
2008 03 03.17911 09 14 22.63 +18 12 58.2 20.2 V 691 – Steward Observatory, Kitt Peak-Spacewatch MPS 240785
2008 03 03.19495 09 14 22.02 +18 13 03.1 20.2 V 691 – Steward Observatory, Kitt Peak-Spacewatch MPS 240785
2008 03 07.17964 09 12 15.60 +18 30 48.8   691 – Steward Observatory, Kitt Peak-Spacewatch MPS 242170
2008 03 07.19573 09 12 15.08 +18 30 52.5   691 – Steward Observatory, Kitt Peak-Spacewatch MPS 242170
2008 03 07.21183 09 12 14.59 +18 30 56.5   691 – Steward Observatory, Kitt Peak-Spacewatch MPS 242170
2008 05 06.22824 09 30 10.18 +18 14 40.2 20.6 V G96 – Mt. Lemmon Survey MPS 248999
2008 05 06.23580 09 30 10.69 +18 14 37.8 22.2 V G96 – Mt. Lemmon Survey MPS 248999
2008 05 06.24338 09 30 11.12 +18 14 35.5 21.1 V G96 – Mt. Lemmon Survey MPS 248999
2008 05 06.25073 09 30 11.55 +18 14 33.7 21.9 V G96 – Mt. Lemmon Survey MPS 248999
2009 05 16.34994 16 27 37.76 -13 02 06.3 19.9 V G96 – Mt. Lemmon Survey MPS 286938
2009 05 16.35835 16 27 37.26 -13 02 06.0 20.1 V G96 – Mt. Lemmon Survey MPS 286938
2009 05 16.36736 16 27 36.82 -13 02 04.4 20.2 V G96 – Mt. Lemmon Survey MPS 286938
2009 05 16.37572 16 27 36.43 -13 02 03.3 20.0 V G96 – Mt. Lemmon Survey MPS 286938
2009 05 30.34807 16 15 31.93 -12 38 27.2 20.3 V G96 – Mt. Lemmon Survey MPS 287994
2009 05 30.35711 16 15 31.46 -12 38 26.7 20.2 V G96 – Mt. Lemmon Survey MPS 287994
2009 05 30.36608 16 15 30.99 -12 38 25.9 20.1 V G96 – Mt. Lemmon Survey MPS 287994
2009 05 30.37512 16 15 30.52 -12 38 25.0 20.0 V G96 – Mt. Lemmon Survey MPS 287994
2009 05 30.39925 16 15 29.23 -12 38 23.3 20.2 V G96 – Mt. Lemmon Survey MPS 287994
2009 05 30.40377 16 15 28.98 -12 38 22.9 20.3 V G96 – Mt. Lemmon Survey MPS 287994
2009 05 30.40822 16 15 28.76 -12 38 22.3 20.4 V G96 – Mt. Lemmon Survey MPS 287994
